TimeEST,TemperatureF,Dew PointF,Humidity,Sea Level PressureIn,VisibilityMPH,Wind Direction,Wind SpeedMPH,Gust SpeedMPH,PrecipitationIn,Events,Conditions,WindDirDegrees,DateUTC
12:15 AM,37.4,37.4,100,30.12,4.0,NNE,6.9,-,N/A,,Overcast,20,2013-02-23 05:15:00
12:35 AM,37.4,37.4,100,30.12,3.0,North,5.8,-,N/A,,Overcast,360,2013-02-23 05:35:00
12:55 AM,37.4,37.4,100,30.11,3.0,NNE,4.6,-,N/A,,Overcast,30,2013-02-23 05:55:00
1:15 AM,37.4,37.4,100,30.10,3.0,North,6.9,-,N/A,,Overcast,10,2013-02-23 06:15:00
1:35 AM,37.4,37.4,100,30.07,3.0,NNE,8.1,-,N/A,,Overcast,20,2013-02-23 06:35:00
1:55 AM,37.4,37.4,100,30.07,3.0,NE,4.6,-,N/A,,Overcast,40,2013-02-23 06:55:00
2:15 AM,37.4,37.4,100,30.06,3.0,ENE,5.8,-,N/A,,Overcast,60,2013-02-23 07:15:00
2:35 AM,37.4,37.4,100,30.04,2.5,NE,6.9,-,N/A,,Drizzle,50,2013-02-23 07:35:00
2:55 AM,37.4,37.4,100,30.03,3.0,NNE,8.1,-,N/A,,Overcast,30,2013-02-23 07:55:00
3:15 AM,37.4,37.4,100,30.02,2.5,North,8.1,-,N/A,,Drizzle,10,2013-02-23 08:15:00
3:35 AM,37.4,37.4,100,30.03,3.0,NNE,6.9,-,N/A,Rain,Rain,20,2013-02-23 08:35:00
3:55 AM,37.4,37.4,100,30.04,4.0,North,5.8,-,0.02,Rain,Rain,10,2013-02-23 08:55:00
4:15 AM,37.4,37.4,100,30.02,5.0,NNE,5.8,-,0.03,Rain,Rain,30,2013-02-23 09:15:00
4:35 AM,37.4,37.4,100,29.99,5.0,NE,10.4,-,0.05,Rain,Rain,40,2013-02-23 09:35:00
4:55 AM,37.4,37.4,100,29.99,5.0,NNE,8.1,-,0.05,Rain,Light Rain,30,2013-02-23 09:55:00
5:15 AM,37.4,37.4,100,29.99,5.0,NE,6.9,-,0.02,Rain,Light Rain,40,2013-02-23 10:15:00
5:35 AM,37.4,37.4,100,29.98,5.0,NE,8.1,-,0.05,Rain,Rain,40,2013-02-23 10:35:00
5:55 AM,37.4,37.4,100,29.97,4.0,NE,8.1,-,0.14,Rain,Rain,50,2013-02-23 10:55:00
6:15 AM,37.4,37.4,100,29.98,3.0,NE,3.5,-,0.08,Rain,Rain,40,2013-02-23 11:15:00
6:35 AM,37.4,37.4,100,29.98,4.0,NE,3.5,-,0.14,Rain,Rain,40,2013-02-23 11:35:00
6:55 AM,37.4,37.4,100,29.98,3.0,NNE,5.8,-,0.23,Rain,Heavy Rain,20,2013-02-23 11:55:00
7:15 AM,37.4,37.4,100,29.96,5.0,NE,8.1,-,0.05,Rain,Rain,40,2013-02-23 12:15:00
7:35 AM,37.4,37.4,100,29.96,7.0,NE,9.2,-,0.06,Rain,Light Rain,50,2013-02-23 12:35:00
7:55 AM,37.4,37.4,100,29.98,10.0,North,6.9,-,0.06,Rain,Light Rain,360,2013-02-23 12:55:00
8:15 AM,39.2,39.2,100,29.99,10.0,North,8.1,-,N/A,,Overcast,360,2013-02-23 13:15:00
8:55 AM,39.2,39.2,100,29.99,10.0,North,6.9,-,N/A,,Overcast,360,2013-02-23 13:55:00
9:15 AM,39.2,39.2,100,30.00,10.0,North,4.6,-,N/A,,Overcast,10,2013-02-23 14:15:00
9:55 AM,39.2,39.2,100,29.97,2.0,NE,5.8,-,N/A,,Drizzle,40,2013-02-23 14:55:00
10:15 AM,41.0,41.0,100,29.97,3.0,NNE,6.9,-,N/A,,Drizzle,20,2013-02-23 15:15:00
10:55 AM,41.0,41.0,100,29.97,2.5,NNE,5.8,-,N/A,,Drizzle,20,2013-02-23 15:55:00
11:35 AM,41.0,41.0,100,29.96,2.0,NE,4.6,-,N/A,,Light Drizzle,50,2013-02-23 16:35:00
11:55 AM,41.0,41.0,100,29.97,3.0,NE,5.8,-,N/A,,Overcast,40,2013-02-23 16:55:00
12:15 PM,42.8,42.8,100,29.96,2.5,NNE,5.8,-,N/A,,Drizzle,30,2013-02-23 17:15:00
12:35 PM,42.8,42.8,100,29.96,2.5,North,6.9,-,N/A,,Drizzle,360,2013-02-23 17:35:00
12:55 PM,42.8,42.8,100,29.95,5.0,NNE,5.8,-,N/A,,Overcast,20,2013-02-23 17:55:00
1:15 PM,42.8,42.8,100,29.93,4.0,NNE,5.8,-,N/A,,Light Drizzle,20,2013-02-23 18:15:00
1:35 PM,42.8,42.8,100,29.92,7.0,NE,3.5,-,N/A,,Overcast,40,2013-02-23 18:35:00
1:55 PM,42.8,42.8,100,29.92,10.0,NNE,3.5,-,N/A,,Overcast,30,2013-02-23 18:55:00
2:15 PM,42.8,42.8,100,29.92,10.0,Calm,Calm,-,N/A,,Overcast,0,2013-02-23 19:15:00
2:35 PM,42.8,42.8,100,29.92,10.0,Calm,Calm,-,N/A,,Overcast,0,2013-02-23 19:35:00
2:55 PM,42.8,42.8,100,29.91,10.0,North,6.9,-,N/A,,Overcast,350,2013-02-23 19:55:00
3:15 PM,42.8,42.8,100,29.90,10.0,North,5.8,-,N/A,,Overcast,360,2013-02-23 20:15:00
3:55 PM,42.8,42.8,100,29.90,4.0,NNW,5.8,-,N/A,,Overcast,330,2013-02-23 20:55:00
4:15 PM,42.8,42.8,100,29.90,2.0,NNW,6.9,-,N/A,,Overcast,330,2013-02-23 21:15:00
4:35 PM,42.8,42.8,100,29.90,0.8,NNW,4.6,-,N/A,,Overcast,340,2013-02-23 21:35:00
4:55 PM,42.8,42.8,100,29.89,1.0,NNW,4.6,-,N/A,,Overcast,330,2013-02-23 21:55:00
5:15 PM,42.8,42.8,100,29.87,1.2,NNE,3.5,-,N/A,,Overcast,30,2013-02-23 22:15:00
5:55 PM,42.8,42.8,100,29.87,2.5,NNW,3.5,-,N/A,,Overcast,340,2013-02-23 22:55:00
6:15 PM,42.8,42.8,100,29.87,1.2,Calm,Calm,-,N/A,,Overcast,0,2013-02-23 23:15:00
6:35 PM,42.8,42.8,100,29.88,1.2,Calm,Calm,-,N/A,,Overcast,0,2013-02-23 23:35:00
6:55 PM,42.8,42.8,100,29.89,0.8,Calm,Calm,-,N/A,,Overcast,0,2013-02-23 23:55:00
7:35 PM,42.8,42.8,100,29.89,0.5,Calm,Calm,-,N/A,Fog,Fog,0,2013-02-24 00:35:00
7:55 PM,42.8,42.8,100,29.89,0.5,Calm,Calm,-,N/A,Fog,Fog,0,2013-02-24 00:55:00
8:15 PM,42.8,42.8,100,29.89,0.5,Calm,Calm,-,N/A,Fog,Fog,0,2013-02-24 01:15:00
8:55 PM,42.8,42.8,100,29.87,0.2,SSE,3.5,-,N/A,Fog,Fog,150,2013-02-24 01:55:00
9:15 PM,42.8,42.8,100,29.86,0.2,SSE,5.8,-,N/A,Fog,Fog,150,2013-02-24 02:15:00
9:55 PM,42.8,42.8,100,29.87,0.5,Calm,Calm,-,N/A,Fog,Fog,0,2013-02-24 02:55:00
10:15 PM,42.8,42.8,100,29.87,0.5,Calm,Calm,-,N/A,Fog,Fog,0,2013-02-24 03:15:00
10:35 PM,42.8,42.8,100,29.89,0.5,SW,3.5,-,N/A,Fog,Fog,230,2013-02-24 03:35:00
10:55 PM,42.8,42.8,100,29.88,0.8,Calm,Calm,-,N/A,,Overcast,0,2013-02-24 03:55:00
11:15 PM,42.8,42.8,100,29.87,0.8,Calm,Calm,-,N/A,,Overcast,0,2013-02-24 04:15:00
11:35 PM,42.8,42.8,100,29.86,0.5,Calm,Calm,-,N/A,Fog,Fog,0,2013-02-24 04:35:00
11:55 PM,42.8,42.8,100,29.87,1.2,West,3.5,-,N/A,,Overcast,260,2013-02-24 04:55:00